Annecy-Haute-Savoie-Mont, France

4:35 AM CEST on September 23, 2017 (GMT +0200)
Meythet

Weather History for LFLP - January, 2014

Change the Weather History Date:

Wednesday, January 29, 2014

  Actual Average (LFLB) Record (LFLB)
Temperature  
Mean Temperature 30 °F -  
Max Temperature 36 °F 40 °F 54 °F (2016)
Min Temperature 24 °F 29 °F 24 °F (2005)
Degree Days  
Heating Degree Days 35    
Moisture  
Dew Point 29 °F    
Average Humidity 86    
Maximum Humidity 93    
Minimum Humidity 71    
Precipitation  
Precipitation 0.00 in - - ()
Sea Level Pressure  
Sea Level Pressure 29.48 in    
Wind  
Wind Speed 2 mph ()    
Max Wind Speed 7 mph    
Max Gust Speed -    
Visibility 6.9 miles    
Events Rain    
Averages and records for this station are not official NWS values.
T = Trace of Precipitation, MM = Missing Value Source: Averaged Metar Reports

Daily Weather History Graph

Daily Weather History Graph

Search for Another Location

Airport or City:

Trip Planner

Search our weather history database for the weather conditions in past years. The results will help you decide how hot, cold, wet, or windy it might be!

Date:

Astronomy

Jan. 29, 2014 Rise Set
Actual Time 8:01 AM CET 5:36 PM CET
Civil Twilight 7:29 AM CET 6:08 PM CET
Nautical Twilight 6:53 AM CET 6:44 PM CET
Astronomical Twilight 6:18 AM CET 7:19 PM CET
Moon 6:25 AM CET (1/29) 4:16 PM CET (1/29)
Length of Visible Light 10h 39m
Length of Day
9h 35m
Waning Crescent, 3% of the Moon is Illuminated
Jan 29
Waning Crescent
Jan 30
New
Feb 6
First Quarter
Feb 15
Full
Feb 22
Last Quarter

Hourly Weather History & Observations

Time (CET) Temp. Windchill Dew Point Humidity Pressure Visibility Wind Dir Wind Speed Gust Speed Precip Events Conditions
12:00 AM 31 °F - 26 °F 74% 29.49 in 12 mi ENE 5.8 mph - -   Clear
12:00 AM 30.2 °F 24.3 °F 26.6 °F 86% 29.42 in 6.2 mi ENE 5.8 mph - N/A   Unknown
12:30 AM 30.2 °F 26.7 °F 24.8 °F 80% 29.42 in 6.2 mi NNE 3.5 mph - N/A   Unknown
1:00 AM 29 °F - 25 °F 80% 29.49 in 12 mi East 4.6 mph - -   Clear
1:00 AM 30.2 °F 25.4 °F 24.8 °F 80% 29.42 in 6.2 mi East 4.6 mph - N/A   Unknown
1:30 AM 28.4 °F - 24.8 °F 86% 29.42 in 6.2 mi Calm Calm - N/A   Unknown
2:00 AM 28 °F - 25 °F 82% 29.49 in 12 mi East 1.2 mph - -   Clear
2:00 AM 28.4 °F - 24.8 °F 86% 29.42 in 6.2 mi East 1.2 mph - N/A   Unknown
2:30 AM 28.4 °F - 24.8 °F 86% 29.42 in 6.2 mi Variable 2.3 mph - N/A   Unknown
3:00 AM 27 °F - 24 °F 84% 29.51 in 9 mi North 2.3 mph - -   Clear
3:00 AM 26.6 °F - 24.8 °F 93% 29.42 in 6.2 mi North 2.3 mph - N/A   Unknown
3:30 AM 26.6 °F - 24.8 °F 93% 29.42 in 6.2 mi North 1.2 mph - N/A   Unknown
4:00 AM 27 °F - 24 °F 83% 29.49 in 9 mi ENE 2.3 mph - -   Clear
4:00 AM 26.6 °F - 24.8 °F 93% 29.39 in 6.2 mi ENE 2.3 mph - N/A   Unknown
4:30 AM 26.6 °F 22.6 °F 23.0 °F 86% 29.39 in 6.2 mi Variable 3.5 mph - N/A   Unknown
5:00 AM 26 °F - 23 °F 83% 29.49 in 12 mi East 1.2 mph - -   Clear
5:00 AM 26.6 °F - 23.0 °F 86% 29.39 in 6.2 mi Calm Calm - N/A   Unknown
5:30 AM 26.6 °F 22.6 °F 24.8 °F 93% 29.42 in 6.2 mi Variable 3.5 mph - N/A   Unknown
6:00 AM 27 °F - 24 °F 86% 29.49 in 9 mi Calm Calm - -   Clear
6:00 AM 26.6 °F - 24.8 °F 93% 29.39 in 6.2 mi Calm Calm - N/A   Unknown
6:30 AM 28.4 °F - 24.8 °F 86% 29.39 in 6.2 mi West 2.3 mph - N/A   Unknown
7:00 AM 28 °F - 26 °F 86% 29.50 in 10 mi ESE 2.3 mph - -   Clear
7:00 AM 28.4 °F - 24.8 °F 86% 29.42 in 6.2 mi Variable 2.3 mph - N/A   Unknown
7:30 AM 28.4 °F - 26.6 °F 93% 29.42 in 6.2 mi Calm Calm - N/A   Overcast
8:00 AM 29 °F - 26 °F 84% 29.50 in 9 mi Calm Calm - -   Clear
8:00 AM 28.4 °F - 26.6 °F 93% 29.42 in 6.2 mi Calm Calm - N/A   Overcast
8:30 AM 30.2 °F - 26.6 °F 86% 29.42 in 6.2 mi Variable 1.2 mph - N/A   Overcast
9:00 AM 30 °F - 28 °F 86% 29.52 in 7 mi NW 3.5 mph - -   Clear
9:00 AM 30.2 °F 26.7 °F 28.4 °F 93% 29.44 in 6.2 mi NW 3.5 mph - N/A   Mostly Cloudy
9:30 AM 32.0 °F - 28.4 °F 87% 29.44 in 6.2 mi Calm Calm - N/A   Overcast
10:00 AM 32 °F - 28 °F 80% 29.51 in 9 mi Calm Calm - -   Clear
10:00 AM 32.0 °F - 28.4 °F 87% 29.44 in 6.2 mi Calm Calm - N/A   Overcast
10:30 AM 32.0 °F - 28.4 °F 87% 29.44 in 6.2 mi Variable 2.3 mph - N/A   Overcast
11:00 AM 33 °F - 30 °F 84% 29.52 in 10 mi SW 3.5 mph - -   Clear
11:00 AM 33.8 °F 30.8 °F 30.2 °F 87% 29.44 in 6.2 mi SW 3.5 mph - N/A   Overcast
11:30 AM 33.8 °F 29.6 °F 32.0 °F 93% 29.44 in 6.2 mi WSW 4.6 mph - N/A   Overcast
12:00 PM 35 °F - 31 °F 81% 29.52 in 9 mi West 6.9 mph - -   Clear
12:00 PM 33.8 °F 27.7 °F 32.0 °F 93% 29.44 in 6.2 mi West 6.9 mph - N/A   Unknown
12:30 PM 33.8 °F 28.6 °F 30.2 °F 87% 29.44 in 6.2 mi West 5.8 mph - N/A   Unknown
1:00 PM 35 °F - 31 °F 79% 29.53 in 10 mi West 3.5 mph - -   Clear
1:00 PM 35.6 °F 32.8 °F 30.2 °F 81% 29.47 in 6.2 mi West 3.5 mph - N/A   Mostly Cloudy
1:30 PM 35.6 °F - 30.2 °F 81% 29.44 in 6.2 mi West 2.3 mph - N/A   Unknown
2:00 PM 36 °F - 30 °F 73% 29.52 in 11 mi WNW 1.2 mph - -   Clear
2:00 PM 35.6 °F - 30.2 °F 81% 29.44 in 6.2 mi Variable 1.2 mph - N/A   Unknown
2:30 PM 35.6 °F - 30.2 °F 81% 29.44 in 6.2 mi Variable 2.3 mph - N/A   Unknown
3:00 PM 36 °F - 30 °F 71% 29.51 in 11 mi West 2.3 mph - -   Clear
3:00 PM 35.6 °F - 30.2 °F 81% 29.44 in 6.2 mi West 2.3 mph - N/A   Overcast
3:30 PM 35.6 °F 32.8 °F 32.0 °F 87% 29.44 in 6.2 mi WNW 3.5 mph - N/A   Overcast
4:00 PM 36 °F - 31 °F 76% 29.52 in 8 mi NW 1.2 mph - -   Clear
4:00 PM 35.6 °F - 32.0 °F 87% 29.44 in 6.2 mi Calm Calm - N/A   Overcast
4:30 PM 35.6 °F 32.8 °F 32.0 °F 87% 29.47 in 6.2 mi WSW 3.5 mph - N/A   Overcast
5:00 PM 35 °F - 32 °F 83% 29.54 in 7 mi West 3.5 mph - - Rain Light Drizzle
5:00 PM 35.6 °F 32.8 °F 32.0 °F 87% 29.47 in 6.2 mi West 3.5 mph - N/A   Light Drizzle
5:30 PM 35.6 °F 32.8 °F 32.0 °F 87% 29.47 in 6.2 mi West 3.5 mph - N/A Rain Light Rain
6:00 PM 35 °F - 33 °F 87% 29.56 in 6 mi West 2.3 mph - - Rain Light Rain
6:00 PM 35.6 °F - 32.0 °F 87% 29.50 in 6.2 mi West 2.3 mph - N/A Rain Light Rain
6:30 PM 33.8 °F - 32.0 °F 93% 29.50 in 5.6 mi Calm Calm - N/A   Overcast
7:00 PM 35 °F - 32 °F 85% 29.59 in 7 mi Calm Calm - -   Clear
7:00 PM 33.8 °F - 32.0 °F 93% 29.53 in 6.2 mi Calm Calm - N/A   Overcast
7:30 PM 35.6 °F - 32.0 °F 87% 29.53 in 5.6 mi Calm Calm - N/A   Overcast
8:00 PM 35 °F - 33 °F 90% 29.61 in 6 mi WNW 2.3 mph - - Rain Light Drizzle
8:00 PM 35.6 °F - 33.8 °F 93% 29.53 in 5.6 mi Variable 2.3 mph - N/A   Light Drizzle
8:30 PM 35.6 °F - 33.8 °F 93% 29.56 in 5.6 mi Calm Calm - N/A   Overcast
9:00 PM 35 °F - 33 °F 91% 29.62 in 5 mi Calm Calm - -   Clear
9:00 PM 35.6 °F - 33.8 °F 93% 29.56 in 5.0 mi Calm Calm - N/A   Overcast
9:30 PM 35.6 °F - 33.8 °F 93% 29.56 in 3.7 mi Calm Calm - N/A   Overcast
10:00 PM 35 °F - 33 °F 88% 29.65 in 4 mi Calm Calm - -   Clear
10:00 PM 35.6 °F - 32.0 °F 87% 29.59 in 3.7 mi Calm Calm - N/A   Overcast
10:30 PM 35.6 °F 32.8 °F 32.0 °F 87% 29.59 in 5.0 mi Variable 3.5 mph - N/A   Overcast
11:00 PM 35 °F - 33 °F 87% 29.66 in 5 mi ENE 1.2 mph - -   Clear
11:00 PM 35.6 °F - 32.0 °F 87% 29.59 in 5.0 mi Variable 1.2 mph - N/A   Overcast
11:30 PM 35.6 °F - 32.0 °F 87% 29.59 in 5.6 mi Variable 2.3 mph - N/A   Overcast